AUL517 ULLI-ULMM

Flight info

Callsign AUL517
Flight time 1h 31m
Altitude 37000
Route PETAP1B PETAP T457 LULOR/K0857F380 T693 ASGOR ASGOR1C
Aircraft B738/M-SDE2E3FGHIRWXY/LB1

Departure

Time 2026-04-26 10:42
Airport Pulkovo Airport (ULLI)

Arrival

Time 2026-04-26 12:13
Airport Emperor Nicholas II Murmansk Airport (ULMM)
Time Latitude Longitude Altitude Speed Heading
2026-04-26 10:17 59.79809 30.26301 84 ft 0 kts 286°
2026-04-26 10:35 59.79810 30.26298 84 ft 1 kts 289°
2026-04-26 10:36 59.79818 30.26239 84 ft 5 kts 285°
2026-04-26 10:36 59.79853 30.26172 84 ft 10 kts 13°
2026-04-26 10:36 59.79929 30.26215 84 ft 16 kts 15°
2026-04-26 10:36 59.80058 30.26288 84 ft 20 kts 17°
2026-04-26 10:37 59.80193 30.26364 84 ft 20 kts 19°
2026-04-26 10:37 59.80311 30.26436 84 ft 13 kts 10°
2026-04-26 10:37 59.80406 30.26463 84 ft 14 kts 15°
2026-04-26 10:37 59.80440 30.26571 84 ft 10 kts 102°
2026-04-26 10:38 59.80412 30.26762 84 ft 21 kts 106°
2026-04-26 10:38 59.80365 30.27088 84 ft 20 kts 106°
2026-04-26 10:38 59.80323 30.27367 84 ft 21 kts 107°
2026-04-26 10:38 59.80279 30.27659 84 ft 22 kts 106°
2026-04-26 10:39 59.80232 30.27982 84 ft 26 kts 105°
2026-04-26 10:39 59.80179 30.28339 84 ft 27 kts 108°
2026-04-26 10:39 59.80165 30.28577 84 ft 13 kts 51°
2026-04-26 10:39 59.80227 30.28720 84 ft 14 kts 48°
2026-04-26 10:40 59.80298 30.28871 84 ft 13 kts 42°
2026-04-26 10:40 59.80338 30.28810 84 ft 4 kts 285°
2026-04-26 10:41 59.80338 30.28807 84 ft 1 kts 285°
2026-04-26 10:41 59.80368 30.28611 84 ft 43 kts 287°
2026-04-26 10:41 59.80538 30.27492 85 ft 123 kts 285°
2026-04-26 10:42 59.80685 30.26481 240 ft 145 kts 289°
2026-04-26 10:42 59.80844 30.25455 772 ft 140 kts 292°
2026-04-26 10:42 59.81140 30.23610 1489 ft 154 kts 294°
2026-04-26 10:42 59.81447 30.21537 2187 ft 162 kts 295°
2026-04-26 10:43 59.81779 30.19331 2812 ft 174 kts 294°
2026-04-26 10:43 59.82138 30.16938 3367 ft 190 kts 294°
2026-04-26 10:43 59.82530 30.14346 3951 ft 205 kts 294°
2026-04-26 10:43 59.82957 30.11574 4490 ft 221 kts 294°
2026-04-26 10:44 59.83412 30.08559 5054 ft 236 kts 292°
2026-04-26 10:44 59.83867 30.05401 5769 ft 243 kts 292°
2026-04-26 10:44 59.84338 30.02129 6494 ft 250 kts 291°
2026-04-26 10:44 59.84841 29.98831 7266 ft 254 kts 293°
2026-04-26 10:45 59.85518 29.95668 8066 ft 255 kts 304°
2026-04-26 10:45 59.86491 29.92783 8940 ft 254 kts 310°
2026-04-26 10:45 59.87524 29.89990 9719 ft 259 kts 309°
2026-04-26 10:45 59.88548 29.87063 10587 ft 262 kts 307°
2026-04-26 10:46 59.89573 29.84048 11175 ft 266 kts 308°
2026-04-26 10:46 59.90648 29.80868 11338 ft 294 kts 308°
2026-04-26 10:46 59.92041 29.77704 11320 ft 310 kts 324°
2026-04-26 10:46 59.93972 29.75814 11326 ft 311 kts 349°
2026-04-26 10:47 59.96107 29.75600 11330 ft 310 kts
2026-04-26 10:47 59.98278 29.75995 11322 ft 309 kts
2026-04-26 10:47 60.00403 29.76331 11324 ft 309 kts
2026-04-26 10:47 60.02547 29.76605 11324 ft 310 kts
2026-04-26 10:48 60.04659 29.76844 11330 ft 307 kts
2026-04-26 10:48 60.06771 29.77083 11320 ft 308 kts
2026-04-26 10:48 60.08891 29.77341 11312 ft 309 kts
2026-04-26 10:48 60.11044 29.77586 11320 ft 309 kts
2026-04-26 10:49 60.13080 29.77805 11315 ft 310 kts
2026-04-26 10:49 60.15306 29.78046 11370 ft 314 kts
2026-04-26 10:49 60.17503 29.78289 12055 ft 318 kts
2026-04-26 10:49 60.19671 29.78530 12996 ft 313 kts
2026-04-26 10:50 60.21810 29.78811 13759 ft 316 kts
2026-04-26 10:50 60.23280 29.79014 14207 ft 319 kts
2026-04-26 10:50 60.26235 29.79342 15210 ft 322 kts
2026-04-26 10:50 60.28461 29.79575 15986 ft 323 kts
2026-04-26 10:51 60.30677 29.79847 16687 ft 326 kts
2026-04-26 10:51 60.35204 29.81298 17940 ft 333 kts 17°
2026-04-26 10:51 60.37380 29.82824 18609 ft 336 kts 22°
2026-04-26 10:52 60.39558 29.84634 19239 ft 339 kts 24°
2026-04-26 10:52 60.41701 29.86501 19849 ft 342 kts 24°
2026-04-26 10:52 60.43846 29.88377 20430 ft 346 kts 24°
2026-04-26 10:52 60.46066 29.90305 21017 ft 349 kts 24°
2026-04-26 10:53 60.48283 29.92215 21583 ft 352 kts 24°
2026-04-26 10:53 60.50532 29.94140 22151 ft 355 kts 24°
2026-04-26 10:53 60.52819 29.96091 22690 ft 358 kts 24°
2026-04-26 10:54 60.57427 30.00015 23727 ft 365 kts 25°
2026-04-26 10:54 60.59755 30.01999 24204 ft 368 kts 25°
2026-04-26 10:54 60.62143 30.04036 24660 ft 372 kts 25°
2026-04-26 10:54 60.64532 30.06077 25100 ft 375 kts 25°
2026-04-26 10:55 60.66926 30.08124 25422 ft 379 kts 25°
2026-04-26 10:55 60.69378 30.10226 25738 ft 383 kts 25°
2026-04-26 10:55 60.71834 30.12333 26038 ft 387 kts 25°
2026-04-26 10:55 60.74298 30.14451 26339 ft 390 kts 25°
2026-04-26 10:56 60.76796 30.16606 26628 ft 394 kts 24°
2026-04-26 10:56 60.79329 30.18796 26935 ft 397 kts 24°
2026-04-26 10:56 60.81831 30.20962 27212 ft 401 kts 24°
2026-04-26 10:56 60.84426 30.23212 27495 ft 404 kts 24°
2026-04-26 10:57 60.87018 30.25461 27790 ft 407 kts 24°
2026-04-26 10:57 60.89642 30.27740 28070 ft 411 kts 24°
2026-04-26 10:57 60.92237 30.29998 28324 ft 414 kts 24°
2026-04-26 10:57 60.94872 30.32295 28583 ft 417 kts 24°
2026-04-26 10:58 60.97566 30.34646 28850 ft 420 kts 24°
2026-04-26 10:58 61.00240 30.36984 29112 ft 424 kts 24°
2026-04-26 10:58 61.02933 30.39342 29373 ft 426 kts 23°
2026-04-26 10:58 61.05674 30.41747 29626 ft 430 kts 23°
2026-04-26 10:59 61.08404 30.44146 29864 ft 433 kts 23°
2026-04-26 10:59 61.11127 30.46544 30104 ft 436 kts 23°
2026-04-26 10:59 61.13878 30.48970 30352 ft 438 kts 23°
2026-04-26 10:59 61.16634 30.51404 30673 ft 437 kts 23°
2026-04-26 11:00 61.19436 30.53883 30961 ft 437 kts 23°
2026-04-26 11:00 61.22183 30.56320 31254 ft 438 kts 23°
2026-04-26 11:00 61.24958 30.58785 31545 ft 438 kts 22°
2026-04-26 11:00 61.27757 30.61276 31821 ft 439 kts 22°
2026-04-26 11:01 61.30533 30.63747 32071 ft 440 kts 22°
2026-04-26 11:01 61.33347 30.66254 32344 ft 440 kts 23°
2026-04-26 11:01 61.36117 30.68726 32596 ft 441 kts 23°
2026-04-26 11:01 61.38946 30.71254 32837 ft 442 kts 23°
2026-04-26 11:02 61.41768 30.73783 33094 ft 443 kts 23°
2026-04-26 11:02 61.44562 30.76291 33446 ft 442 kts 23°
2026-04-26 11:02 61.47361 30.78810 33788 ft 441 kts 23°
2026-04-26 11:02 61.50184 30.81355 34118 ft 441 kts 22°
2026-04-26 11:03 61.52953 30.83857 34439 ft 440 kts 22°
2026-04-26 11:03 61.55748 30.86387 34759 ft 440 kts 22°
2026-04-26 11:03 61.58549 30.88928 35058 ft 440 kts 22°
2026-04-26 11:03 61.61370 30.91491 35345 ft 440 kts 22°
2026-04-26 11:04 61.64137 30.94012 35628 ft 440 kts 22°
2026-04-26 11:04 61.66949 30.96578 35907 ft 440 kts 22°
2026-04-26 11:04 61.69719 30.99110 36171 ft 440 kts 22°
2026-04-26 11:04 61.72522 31.01678 36366 ft 441 kts 22°
2026-04-26 11:05 61.78146 31.06845 36404 ft 441 kts 22°
2026-04-26 11:05 61.83758 31.12022 36400 ft 440 kts 22°
2026-04-26 11:06 61.89319 31.17171 36398 ft 441 kts 22°
2026-04-26 11:06 61.94932 31.22390 36400 ft 441 kts 22°
2026-04-26 11:07 62.00499 31.27587 36404 ft 441 kts 22°
2026-04-26 11:07 62.06107 31.32844 36402 ft 441 kts 22°
2026-04-26 11:08 62.11686 31.38094 36410 ft 442 kts 22°
2026-04-26 11:08 62.17271 31.43372 36412 ft 441 kts 22°
2026-04-26 11:09 62.22872 31.48686 36420 ft 441 kts 22°
2026-04-26 11:09 62.28447 31.53996 36423 ft 441 kts 22°
2026-04-26 11:10 62.33989 31.59296 36420 ft 441 kts 22°
2026-04-26 11:10 62.39576 31.64661 36424 ft 441 kts 22°
2026-04-26 11:11 62.45140 31.70026 36424 ft 442 kts 24°
2026-04-26 11:11 62.50732 31.75440 36426 ft 441 kts 24°
2026-04-26 11:12 62.56306 31.80860 36433 ft 442 kts 24°
2026-04-26 11:12 62.61885 31.86305 36438 ft 442 kts 24°
2026-04-26 11:13 62.67444 31.91754 36443 ft 442 kts 24°
2026-04-26 11:13 62.73113 31.96717 36446 ft 441 kts 15°
2026-04-26 11:14 62.79151 31.98397 36438 ft 440 kts
2026-04-26 11:14 62.85206 31.98184 36449 ft 439 kts 357°
2026-04-26 11:15 62.91275 31.97678 36463 ft 439 kts 357°
2026-04-26 11:15 62.97334 31.97234 36474 ft 439 kts 358°
2026-04-26 11:16 63.03426 31.96874 36484 ft 439 kts 358°
2026-04-26 11:16 63.09472 31.96563 36470 ft 439 kts 358°
2026-04-26 11:17 63.15541 31.96270 36486 ft 439 kts 358°
2026-04-26 11:17 63.21632 31.95981 36496 ft 439 kts 358°
2026-04-26 11:18 63.27714 31.95693 36500 ft 439 kts 358°
2026-04-26 11:18 63.33766 31.95429 36493 ft 439 kts 359°
2026-04-26 11:19 63.39850 31.95564 36501 ft 439 kts
2026-04-26 11:19 63.45910 31.95914 36501 ft 439 kts
2026-04-26 11:20 63.50985 31.96232 36510 ft 439 kts
2026-04-26 11:20 63.58066 31.96646 36519 ft 439 kts
2026-04-26 11:21 63.64123 31.96974 36526 ft 439 kts
2026-04-26 11:21 63.70196 31.97290 36536 ft 439 kts
2026-04-26 11:22 63.76245 31.97601 36547 ft 438 kts
2026-04-26 11:22 63.82336 31.97912 36553 ft 439 kts
2026-04-26 11:23 63.88378 31.98222 36561 ft 438 kts
2026-04-26 11:23 63.94481 31.98536 36567 ft 438 kts
2026-04-26 11:24 64.00507 31.98847 36572 ft 439 kts
2026-04-26 11:24 64.06576 31.99162 36581 ft 439 kts
2026-04-26 11:25 64.12642 31.99478 36581 ft 439 kts
2026-04-26 11:25 64.18720 31.99796 36586 ft 439 kts
2026-04-26 11:26 64.24801 32.00116 36587 ft 439 kts
2026-04-26 11:26 64.30865 32.00436 36589 ft 439 kts
2026-04-26 11:27 64.36906 32.00757 36594 ft 439 kts
2026-04-26 11:27 64.42980 32.01080 36596 ft 439 kts
2026-04-26 11:28 64.49044 32.01404 36599 ft 439 kts
2026-04-26 11:28 64.55093 32.01730 36601 ft 439 kts
2026-04-26 11:29 64.61163 32.02058 36602 ft 439 kts
2026-04-26 11:29 64.67226 32.02387 36607 ft 439 kts
2026-04-26 11:30 64.72320 32.02664 36610 ft 439 kts
2026-04-26 11:30 64.79387 32.03051 36616 ft 439 kts
2026-04-26 11:31 64.85465 32.03385 36619 ft 440 kts
2026-04-26 11:31 64.91554 32.03721 36621 ft 440 kts
2026-04-26 11:32 64.97645 32.04059 36621 ft 440 kts
2026-04-26 11:32 65.03704 32.04399 36625 ft 440 kts
2026-04-26 11:33 65.09792 32.04742 36624 ft 440 kts
2026-04-26 11:33 65.15891 32.05086 36629 ft 440 kts
2026-04-26 11:34 65.21977 32.05432 36628 ft 440 kts
2026-04-26 11:34 65.28020 32.05777 36635 ft 440 kts
2026-04-26 11:35 65.34107 32.06126 36635 ft 439 kts
2026-04-26 11:35 65.40163 32.06474 36639 ft 439 kts
2026-04-26 11:36 65.46195 32.06823 36644 ft 439 kts
2026-04-26 11:36 65.51885 32.07154 36649 ft 439 kts
2026-04-26 11:37 65.57217 32.07462 36650 ft 439 kts
2026-04-26 11:37 65.63743 32.07780 36658 ft 439 kts
2026-04-26 11:38 65.69836 32.08056 36663 ft 439 kts
2026-04-26 11:38 65.74737 32.08279 36667 ft 439 kts
2026-04-26 11:39 65.80787 32.08561 36668 ft 439 kts
2026-04-26 11:39 65.86880 32.08850 36668 ft 439 kts
2026-04-26 11:40 65.92944 32.09140 36671 ft 439 kts
2026-04-26 11:40 65.99010 32.09432 36674 ft 439 kts
2026-04-26 11:42 66.23296 32.10617 36680 ft 439 kts
2026-04-26 11:43 66.29408 32.10918 36681 ft 439 kts
2026-04-26 11:43 66.35453 32.11219 36685 ft 439 kts
2026-04-26 11:44 66.41512 32.12486 36687 ft 440 kts
2026-04-26 11:44 66.47449 32.15599 36690 ft 440 kts 13°
2026-04-26 11:45 66.53374 32.19313 36689 ft 440 kts 14°
2026-04-26 11:45 66.59289 32.23089 36689 ft 440 kts 13°
2026-04-26 11:46 66.65184 32.26817 36687 ft 440 kts 13°
2026-04-26 11:46 66.71077 32.30518 36684 ft 440 kts 13°
2026-04-26 11:47 66.76969 32.34211 36683 ft 441 kts 13°
2026-04-26 11:47 66.82923 32.37951 36683 ft 441 kts 13°
2026-04-26 11:48 66.88829 32.41675 36681 ft 441 kts 13°
2026-04-26 11:48 66.94736 32.45417 36681 ft 440 kts 13°
2026-04-26 11:49 67.00656 32.49186 36681 ft 441 kts 13°
2026-04-26 11:49 67.06563 32.52963 36681 ft 441 kts 13°
2026-04-26 11:50 67.12438 32.56740 36681 ft 440 kts 13°
2026-04-26 11:50 67.17230 32.59834 36499 ft 443 kts 13°
2026-04-26 11:51 67.20247 32.61790 36080 ft 443 kts 13°
2026-04-26 11:51 67.22945 32.63543 35688 ft 439 kts 13°
2026-04-26 11:51 67.26078 32.65584 35227 ft 435 kts 14°
2026-04-26 11:51 67.28507 32.67170 34867 ft 433 kts 14°
2026-04-26 11:52 67.31735 32.69283 34382 ft 432 kts 14°
2026-04-26 11:52 67.34634 32.71186 33945 ft 433 kts 14°
2026-04-26 11:52 67.37495 32.73066 33506 ft 433 kts 14°
2026-04-26 11:52 67.40426 32.74990 32823 ft 436 kts 13°
2026-04-26 11:53 67.43308 32.76650 32302 ft 437 kts 10°
2026-04-26 11:53 67.46182 32.77809 31923 ft 431 kts
2026-04-26 11:53 67.49164 32.78334 31490 ft 426 kts
2026-04-26 11:54 67.54926 32.78357 30665 ft 419 kts 358°
2026-04-26 11:54 67.57754 32.78196 30281 ft 415 kts 358°
2026-04-26 11:54 67.60607 32.78012 29874 ft 410 kts 358°
2026-04-26 11:54 67.63399 32.77840 29368 ft 403 kts 358°
2026-04-26 11:55 67.66164 32.77682 28711 ft 399 kts 358°
2026-04-26 11:55 67.68891 32.77541 28033 ft 394 kts 358°
2026-04-26 11:55 67.71606 32.77412 27336 ft 389 kts 358°
2026-04-26 11:55 67.74255 32.77296 26633 ft 384 kts 358°
2026-04-26 11:56 67.76881 32.77185 25900 ft 379 kts 358°
2026-04-26 11:56 67.79458 32.77081 25137 ft 373 kts 358°
2026-04-26 11:56 67.81993 32.76979 24229 ft 367 kts 359°
2026-04-26 11:56 67.84506 32.76879 23283 ft 362 kts 359°
2026-04-26 11:57 67.86998 32.76781 22341 ft 356 kts 359°
2026-04-26 11:57 67.89414 32.76686 21410 ft 351 kts 359°
2026-04-26 11:57 67.91793 32.76590 20474 ft 346 kts 359°
2026-04-26 11:57 67.94115 32.76495 19546 ft 341 kts 359°
2026-04-26 11:58 67.96450 32.76397 18597 ft 337 kts 359°
2026-04-26 11:58 67.98779 32.76302 18012 ft 330 kts 359°
2026-04-26 11:58 68.01034 32.76243 17723 ft 317 kts 360°
2026-04-26 11:58 68.03200 32.76211 17452 ft 311 kts 360°
2026-04-26 11:59 68.05347 32.76187 17176 ft 310 kts 360°
2026-04-26 11:59 68.07478 32.76387 16774 ft 305 kts
2026-04-26 11:59 68.09581 32.77203 16026 ft 309 kts
2026-04-26 11:59 68.11657 32.78260 14852 ft 317 kts 10°
2026-04-26 12:00 68.13828 32.79367 13500 ft 325 kts 10°
2026-04-26 12:00 68.16045 32.80421 12153 ft 331 kts
2026-04-26 12:00 68.18294 32.81428 10810 ft 333 kts
2026-04-26 12:00 68.20563 32.82407 9517 ft 332 kts
2026-04-26 12:01 68.22778 32.83347 8818 ft 315 kts
2026-04-26 12:01 68.24848 32.84222 8565 ft 289 kts
2026-04-26 12:01 68.26741 32.85025 8312 ft 268 kts
2026-04-26 12:01 68.28519 32.85781 7997 ft 253 kts
2026-04-26 12:02 68.30228 32.86509 7695 ft 240 kts
2026-04-26 12:02 68.31823 32.87191 7410 ft 236 kts
2026-04-26 12:02 68.33472 32.87896 7111 ft 242 kts
2026-04-26 12:02 68.35115 32.88600 6808 ft 234 kts
2026-04-26 12:03 68.36712 32.89287 6523 ft 237 kts
2026-04-26 12:03 68.38345 32.89988 6227 ft 239 kts
2026-04-26 12:03 68.39957 32.90682 5931 ft 231 kts
2026-04-26 12:03 68.41546 32.91367 5646 ft 235 kts
2026-04-26 12:04 68.43171 32.92071 5353 ft 237 kts
2026-04-26 12:04 68.44757 32.92755 5050 ft 232 kts
2026-04-26 12:04 68.46320 32.93431 4771 ft 229 kts
2026-04-26 12:04 68.47879 32.94107 4490 ft 234 kts
2026-04-26 12:05 68.49468 32.94801 4233 ft 227 kts
2026-04-26 12:05 68.50991 32.95465 4135 ft 226 kts
2026-04-26 12:05 68.52518 32.96139 4069 ft 218 kts
2026-04-26 12:05 68.53960 32.96777 3998 ft 202 kts
2026-04-26 12:06 68.55287 32.97354 3947 ft 185 kts
2026-04-26 12:06 68.56482 32.97862 3834 ft 172 kts
2026-04-26 12:06 68.57610 32.98358 3773 ft 155 kts
2026-04-26 12:06 68.58685 32.98859 3765 ft 158 kts
2026-04-26 12:07 68.59734 32.99299 3756 ft 149 kts
2026-04-26 12:07 68.60757 32.99742 3696 ft 150 kts
2026-04-26 12:07 68.61775 33.00160 3598 ft 149 kts
2026-04-26 12:07 68.62794 33.00618 3460 ft 148 kts
2026-04-26 12:08 68.63810 33.00999 3311 ft 147 kts 358°
2026-04-26 12:08 68.64747 33.00083 3153 ft 150 kts 323°
2026-04-26 12:08 68.65535 32.98174 2958 ft 151 kts 324°
2026-04-26 12:08 68.66370 32.96665 2751 ft 138 kts 330°
2026-04-26 12:09 68.67178 32.95249 2565 ft 139 kts 326°
2026-04-26 12:09 68.67982 32.93787 2404 ft 137 kts 328°
2026-04-26 12:09 68.68786 32.92380 2210 ft 138 kts 327°
2026-04-26 12:09 68.69562 32.90906 2036 ft 132 kts 324°
2026-04-26 12:10 68.70311 32.89527 1924 ft 126 kts 326°
2026-04-26 12:10 68.71053 32.88171 1956 ft 129 kts 326°
2026-04-26 12:10 68.71770 32.86868 1974 ft 117 kts 327°
2026-04-26 12:10 68.72427 32.85663 1942 ft 111 kts 327°
2026-04-26 12:11 68.73055 32.84483 1944 ft 109 kts 324°
2026-04-26 12:11 68.73689 32.83331 1796 ft 110 kts 327°
2026-04-26 12:11 68.74320 32.82190 1631 ft 108 kts 326°
2026-04-26 12:11 68.74941 32.81041 1483 ft 109 kts 327°
2026-04-26 12:12 68.75577 32.79886 1318 ft 108 kts 326°
2026-04-26 12:12 68.76201 32.78734 1192 ft 111 kts 326°
2026-04-26 12:12 68.76824 32.77581 1039 ft 109 kts 326°
2026-04-26 12:12 68.77251 32.76799 933 ft 109 kts 326°
2026-04-26 12:13 68.78037 32.75353 882 ft 85 kts 325°
2026-04-26 12:13 68.78391 32.74702 882 ft 33 kts 328°
2026-04-26 12:13 68.78494 32.74560 882 ft 9 kts 342°
2026-04-26 12:13 68.78476 32.74536 882 ft 7 kts 146°
2026-04-26 12:14 68.78387 32.74704 882 ft 22 kts 146°
2026-04-26 12:14 68.78298 32.74934 882 ft 9 kts 101°
2026-04-26 12:14 68.78329 32.75098 882 ft 10 kts 57°
2026-04-26 12:14 68.78371 32.75276 882 ft 11 kts 58°
2026-04-26 12:15 68.78418 32.75478 882 ft 13 kts 56°
2026-04-26 12:15 68.78441 32.75565 882 ft 3 kts 28°
2026-04-26 12:15 68.78467 32.75532 882 ft 5 kts 322°
2026-04-26 12:15 68.78494 32.75478 882 ft 3 kts 326°
2026-04-26 12:16 68.78500 32.75468 882 ft 0 kts 326°